Overview Statistics Trail Chart Weather Telemetry Raw packets
 

This is the latest recevied weather packets stored in our database for station/object KD8DNS. If no packets are shown the sender has not sent any weather packets the latest 10 day(s).

<< 45 46 47 48 49 50 51 >>
Time Temp. Humidity Pressure Rain* Wind** Luminosity Snow
1788364845 33.33° C 60% 1021.9 hPa 0 mm - 591 W/m² -
1788364538 33.33° C 61% 1021.9 hPa 0 mm - 590 W/m² -
1788364237 32.78° C 62% 1021.8 hPa 0 mm - 601 W/m² -
1788363932 32.78° C 61% 1021.7 hPa 0 mm - 585 W/m² -
1788363627 32.78° C 62% 1021.8 hPa 0 mm - 572 W/m² -
1788363326 32.78° C 62% 1021.9 hPa 0 mm - 583 W/m² -
1788363021 32.78° C 62% 1022 hPa 0 mm - 553 W/m² -
1788362718 32.78° C 61% 1022 hPa 0 mm - 520 W/m² -
1788362413 32.78° C 62% 1022 hPa 0 mm - 518 W/m² -
1788362109 32.78° C 62% 1022 hPa 0 mm - 528 W/m² -
1788361808 32.78° C 63% 1022 hPa 0 mm - 477 W/m² -
1788361503 32.22° C 64% 1022.2 hPa 0 mm - 458 W/m² -
1788361198 31.67° C 65% 1022 hPa 0 mm - 439 W/m² -
1788360893 31.67° C 65% 1022.1 hPa 0 mm - 471 W/m² -
1788360588 31.67° C 65% 1021.9 hPa 0 mm - 469 W/m² -
1788360284 31.11° C 67% 1022 hPa 0 mm - 102 W/m² -
1788359978 31.11° C 67% 1022.1 hPa 0 mm - 434 W/m² -
1788359674 31.11° C 67% 1021.9 hPa 0 mm - 435 W/m² -
1788359368 31.11° C 69% 1022.1 hPa 0 mm - 426 W/m² -
1788359064 31.11° C 69% 1021.9 hPa 0 mm - 392 W/m² -
1788358759 30.56° C 70% 1021.9 hPa 0 mm - 378 W/m² -
1788358455 30° C 72% 1021.9 hPa 0 mm - 362 W/m² -
1788358154 30° C 71% 1022 hPa 0 mm - 330 W/m² -
1788357850 30° C 73% 1022 hPa 0 mm - 354 W/m² -
1788357544 30° C 73% 1021.6 hPa 0 mm - 406 W/m² -

* Rain latest hour (hover to see other rain measurements)
** Current wind speed in m/s (hover to see current wind gust speed)